Hourly Data Report for October 17, 2015

All times are specified in Local Standard Time (LST). Add 1 hour to adjust for Daylight Saving Time where and when it is observed.

KITCHENER/WATERLOO
ONTARIO

43°27'39.000" N
80°22'43.000" W
321.60 m
6144239
71368
YKF

Download Data

Hourly Data (October 2015)
Hourly Data Report for October 17, 2015
Temp Definition
°C
Dew Point Temp Definition
°C
Rel Hum Definition
%
Wind Dir Definition
10's deg

Wind Spd Definition
km/h
Visibility Definition
km
Stn Press Definition
kPa
Hmdx Definition


Wind Chill Definition


Weather Definition


TIME
00:00 Legend Double Dagger 0.9 -1.7 83 31 13 16.1 98.17     LegendNANA
01:00 Legend Double Dagger -0.1 -2.0 87 30 13 16.1 98.18   -4 LegendNANA
02:00 Legend Double Dagger -0.9 -2.3 90 29 11 16.1 98.20   -5 LegendNANA
03:00 Legend Double Dagger -1.6 -2.7 92 29 11 16.1 98.21   -5 LegendNANA
04:00 Legend Double Dagger -1.6 -2.9 91 29 11 16.1 98.25   -5 LegendNANA
05:00 Legend Double Dagger -1.7 -3.3 89 30 9 16.1 98.30   -5 LegendNANA
06:00 Legend Double Dagger -2.0 -3.2 92 30 9 16.1 98.34   -5 LegendNANA
07:00 Legend Double Dagger -2.1 -2.9 94 30 5 16.1 98.42   -4 LegendNANA
08:00 Legend Double Dagger 0.2 -1.7 87 32 8 16.1 98.47     LegendNANA
09:00 Legend Double Dagger 2.1 -0.6 82 33 8 16.1 98.53     LegendNANA
10:00 Legend Double Dagger 4.1 -1.8 66 36 13 16.1 98.52     LegendNANA
11:00 Legend Double Dagger 4.8 -4.2 52 33 18 16.1 98.53     LegendNANA
12:00 Legend Double Dagger 5.8 -4.5 48 32 18 16.1 98.51     LegendNANA
13:00 Legend Double Dagger 5.6 -5.1 46 31 18 16.1 98.48     LegendNANA
14:00 Legend Double Dagger 4.7 -4.9 50 31 15 16.1 98.48     LegendNANA
15:00 Legend Double Dagger 5.4 -5.8 44 31 13 16.1 98.49     LegendNANA
16:00 Legend Double Dagger 4.9 -6.9 42 32 15 16.1 98.52     LegendNANA
17:00 Legend Double Dagger 3.9 -7.1 45 31 17 16.1 98.55     LegendNANA
18:00 Legend Double Dagger 2.2 -6.6 52 31 15 16.1 98.59     LegendNANA
19:00 Legend Double Dagger 0.2 -5.2 67 33 8 16.1 98.62     LegendNANA
20:00 Legend Double Dagger -1.7 -4.2 83 30 5 16.1 98.67   -4 LegendNANA
21:00 Legend Double Dagger -1.8 -4.2 84 31 5 16.1 98.69   -4 LegendNANA
22:00 Legend Double Dagger -2.4 -4.8 84 28 4 16.1 98.70   -4 LegendNANA
23:00 Legend Double Dagger -2.8 -4.4 89 27 8 16.1 98.69   -6 LegendNANA

Notes on Data Quality.

Legend

  • E = Estimated
  • M = Missing
  • NA = Not Available
  • ‡ = Partner data that is not subject to review by the National Climate Archives
Date modified: